Flag Weather past 2 weeks in Oakville, Ontario, Canada

Now
43 °F

Quite cool.


Feels Like: 37 °F
Forecast: 40 / 55 °F
Wind: 10 mph from Northeast

Location: Burlington Piers

Current Time: Nov 24, 2014 at 12:17:49 AM

Latest Report: Nov 23, 2014 at 11:00 PM


Visibility: N/A

Pressure: 29.61 "Hg

Humidity: 84%

Dew point: 38 °F

Location of OakvilleLocation

Historic Weather in Oakville — Graph

°F

Oakville temperature yesterday

Maximum temperature yesterday: 51 °F (at 3:00 PM)
Minimum temperature yesterday: 43 °F (at 11:00 PM)
Average temperature yesterday: 46 °F

Past Weeks' High & Low Weather Summary

 TemperatureHumidityPressure
High64 °F (Nov 11, 4:00 PM)100% (Nov 17, 4:00 AM)30.47 "Hg (Nov 17, 4:00 AM)
Low18 °F (Nov 19, 6:00 AM)43% (Nov 11, 3:00 PM)29.54 "Hg (Nov 17, 1:00 PM)
Average35 °F73%30.00 "Hg
* Reported Nov 8 11:00 PM — Nov 23 11:00 PM, Oakville, Weather by CustomWeather, © 2014

Note: Actual official high and low records may vary slightly from our data, if they occured in-between our weather recording intervals... More about our weather records

Advertising

Oakville weather history for previous 24 hours

 ConditionsComfort  
Time TempWeatherWind HumidityBarometerVisibility
11:00 PM
Nov 23
43 °FQuite cool.10 mph84%29.61 "HgN/A
10:00 PM44 °FQuite cool.13 mph81%29.65 "HgN/A
9:00 PM44 °FQuite cool.14 mph89%29.69 "HgN/A
8:00 PM43 °FQuite cool.13 mph90%29.73 "HgN/A
7:00 PM45 °FCool.9 mph84%29.77 "HgN/A
6:00 PM44 °FQuite cool.3 mph91%29.81 "HgN/A
5:00 PM46 °FCool.5 mph82%29.82 "HgN/A
4:00 PM50 °FCool.5 mph76%29.86 "HgN/A
3:00 PM51 °FCool.9 mph78%29.87 "HgN/A
2:00 PM50 °FCool.9 mph84%29.91 "HgN/A
1:00 PM48 °FCool.8 mph78%29.94 "HgN/A
12:00 PM47 °FCool.12 mph84%29.98 "HgN/A
11:00 AM47 °FCool.10 mph84%30.00 "HgN/A
10:00 AM48 °FCool.9 mph75%29.99 "HgN/A
9:00 AM47 °FCool.8 mph72%29.99 "HgN/A
8:00 AM46 °FCool.6 mph79%30.00 "HgN/A
7:00 AM45 °FCool.5 mph77%29.98 "HgN/A
6:00 AM44 °FQuite cool.1 mph79%29.97 "HgN/A
5:00 AM45 °FQuite cool.3 mph79%29.96 "HgN/A
4:00 AM44 °FQuite cool.2 mph89%29.96 "HgN/A
3:00 AM45 °FCool.5 mph86%29.96 "HgN/A
2:00 AM45 °FCool.3 mph89%29.96 "HgN/A
1:00 AM45 °FCool.6 mph90%29.96 "HgN/A
12:00 AM45 °FCool.8 mph86%29.96 "HgN/A
Weather by CustomWeather, © 2014

See weather overviewHow to use our weather pages